Theta_e
329 330 330 334 337 337 337 336 336 337 337 337 339 339 334 333 333 329 328 325 322 321
330 330 332 336 337 336 334 336 336 337 335 337 339 335 334 334 332 328 326 324 323 322
331 333 336 337 335 335 335 336 336 337 336 335 337 333 331 329 328 327 324 324 323 322
332 337 337 336 335 336 336 336 337 337 336 334 332 330 328 328 327 326 323 323 324 323
338 339 336 335 335 337 336 338 338 337 336 334 333 329 327 326 327 325 323 323 323 323
339 340 337 337 339 339 338 337 336 336 335 332 330 328 328 326 326 324 324 323 322 322
336 337 337 338 337 336 336 336 333 332 331 331 329 329 328 328 325 324 324 323 322 321
333 334 332 332 333 333 332 331 327 327 328 328 328 327 326 326 324 322 320 320 320 321
333 333 331 328 328 328 327 328 326 324 324 322 320 305 312 320 322 321 319 317 320 321
332 330 329 328 325 324 324 324 322 321 319 317 314 304 307 311 320 319 321 321 320 321
330 328 327 325 323 323 326 325 323 319 316 315 313 303 305 310 318 317 318 321 321 322
328 326 324 324 323 326 326 323 319 317 316 315 315 303 306 317 321 317 317 319 317 318
327 325 324 325 326 326 325 322 320 318 316 310 314 302 305 314 319 318 319 316 313 304
326 325 326 326 325 324 324 322 320 318 315 314 313 309 304 307 317 319 318 317 316 311
Wind_Speed
12 9 8 8 7 7 7 7 8 7 7 7 7 6 5 4 4 5 5 7 4 3
11 9 8 9 9 7 6 6 8 8 7 6 6 7 7 5 5 5 5 5 5 4
11 9 9 10 11 10 8 8 8 7 6 7 6 7 7 5 5 6 3 4 6 4
8 9 9 9 10 10 9 9 8 8 7 7 7 7 6 6 6 6 6 4 6 6
9 10 10 9 10 10 10 9 9 9 9 8 9 7 7 7 6 7 7 6 6 5
9 10 10 10 12 11 11 10 10 10 10 9 9 8 7 7 7 6 6 7 7 6
10 10 10 11 11 11 11 11 10 9 8 7 7 6 6 6 6 6 6 6 5 6
11 12 11 10 10 9 11 9 8 8 7 7 6 4 6 6 6 6 5 5 5 5
14 14 13 9 11 10 10 10 10 9 10 8 5 5 8 7 5 5 6 5 5 5
15 12 11 10 9 10 10 9 9 9 9 7 6 5 9 10 5 5 5 5 5 4
15 13 11 10 10 8 10 11 10 8 7 8 4 3 8 10 6 5 4 4 5 5
14 12 11 11 10 10 11 9 7 7 7 8 5 5 9 8 6 5 5 4 4 4
12 12 11 11 11 7 11 10 8 7 6 8 6 5 9 7 5 5 3 4 3 4
12 12 11 11 10 9 10 10 8 9 6 6 6 4 5 9 4 4 4 3 2 2
Wind_Direction
208 203 190 179 161 165 172 170 154 150 159 177 165 155 154 153 149 152 167 165 160 170
199 184 179 161 160 162 150 156 154 160 164 169 160 150 154 152 143 150 153 174 170 150
184 172 156 155 161 159 156 147 155 163 155 144 148 141 145 130 138 145 166 170 163 166
160 154 151 157 156 161 154 150 159 156 141 145 142 144 136 145 151 163 173 172 172 182
146 148 155 156 152 147 145 148 149 144 146 146 149 149 149 162 172 172 181 184 178 195
147 152 157 152 148 149 145 147 143 145 145 154 160 159 176 171 163 176 181 182 185 182
142 151 148 150 146 143 149 144 144 153 153 157 162 158 161 158 172 185 191 182 174 166
129 128 126 122 135 131 125 138 127 113 109 113 113 119 136 150 167 159 154 153 145 156
123 121 123 114 116 118 122 116 113 111 119 105 100 103 124 136 126 126 138 146 147 148
125 127 127 125 119 117 116 116 109 113 109 107 108 115 126 119 119 131 142 147 148 154
136 128 134 127 123 114 122 124 124 117 111 114 103 104 148 119 111 114 136 147 158 166
134 137 133 130 130 126 123 119 114 117 126 115 101 75 126 117 111 111 119 120 102 177
138 132 137 135 133 131 122 121 118 115 110 113 115 76 130 114 121 125 120 108 90 56
141 141 140 134 125 123 121 117 116 113 107 107 114 94 114 134 131 133 140 132 120 95